Time,TemperatureF,DewpointF,PressureIn,WindDirection,WindDirectionDegrees,WindSpeedMPH,WindSpeedGustMPH,Humidity,HourlyPrecipIn,Conditions,Clouds,dailyrainin,SoftwareType,DateUTC
2013-04-23 00:03:00,14.6,11.7,22.61,ENE,60,0.0,21.0,88,0.00,,,0.00,Wunderground v.1.15,2013-04-23 06:03:00,
2013-04-23 00:07:00,14.6,11.7,22.62,ESE,113,0.0,21.0,88,0.00,,,0.00,Wunderground v.1.15,2013-04-23 06:07:00,
2013-04-23 00:09:00,14.6,11.7,22.62,ESE,110,0.0,21.0,88,0.00,,,0.00,Wunderground v.1.15,2013-04-23 06:09:00,
2013-04-23 00:15:00,14.5,11.6,22.62,ESE,108,0.0,21.0,88,0.00,,,0.00,Wunderground v.1.15,2013-04-23 06:15:00,
2013-04-23 00:17:00,14.5,11.6,22.62,ENE,75,0.0,21.0,88,0.00,,,0.00,Wunderground v.1.15,2013-04-23 06:17:00,
2013-04-23 00:19:00,14.5,11.6,22.61,ENE,67,0.0,21.0,88,0.00,,,0.00,Wunderground v.1.15,2013-04-23 06:19:00,
2013-04-23 00:21:00,14.5,11.6,22.61,North,11,0.0,21.0,88,0.00,,,0.00,Wunderground v.1.15,2013-04-23 06:21:00,
2013-04-23 00:25:00,14.5,11.6,22.61,NNE,33,0.0,21.0,88,0.00,,,0.00,Wunderground v.1.15,2013-04-23 06:25:00,
2013-04-23 00:27:00,14.5,11.6,22.61,North,4,0.0,21.0,88,0.00,,,0.00,Wunderground v.1.15,2013-04-23 06:27:00,
2013-04-23 00:31:00,14.5,11.6,22.61,North,355,0.0,21.0,88,0.00,,,0.00,Wunderground v.1.15,2013-04-23 06:31:00,
2013-04-23 00:35:00,14.4,11.5,22.61,NNW,329,0.0,21.0,88,0.00,,,0.00,Wunderground v.1.15,2013-04-23 06:35:00,
2013-04-23 00:37:00,14.4,11.5,22.61,NNE,18,0.0,21.0,88,0.00,,,0.00,Wunderground v.1.15,2013-04-23 06:37:00,
2013-04-23 00:41:00,14.4,11.5,22.61,ENE,61,0.0,21.0,88,0.00,,,0.00,Wunderground v.1.15,2013-04-23 06:41:00,
2013-04-23 00:43:00,14.4,11.5,22.61,North,354,0.0,21.0,88,0.00,,,0.00,Wunderground v.1.15,2013-04-23 06:43:00,
2013-04-23 00:45:00,14.4,11.5,22.61,NNE,22,0.0,21.0,88,0.00,,,0.00,Wunderground v.1.15,2013-04-23 06:45:00,
2013-04-23 00:47:00,14.4,11.5,22.62,ESE,105,0.0,21.0,88,0.00,,,0.00,Wunderground v.1.15,2013-04-23 06:47:00,
2013-04-23 00:49:00,14.4,11.5,22.61,NNE,27,0.0,21.0,88,0.00,,,0.00,Wunderground v.1.15,2013-04-23 06:49:00,
2013-04-23 00:53:00,14.4,11.5,22.61,SE,141,0.0,21.0,88,0.00,,,0.00,Wunderground v.1.15,2013-04-23 06:53:00,
2013-04-23 00:55:00,14.4,11.5,22.61,NNE,27,0.0,21.0,88,0.00,,,0.00,Wunderground v.1.15,2013-04-23 06:55:00,
2013-04-23 00:59:00,14.4,11.5,22.60,NE,46,0.0,21.0,88,0.00,,,0.00,Wunderground v.1.15,2013-04-23 06:59:00,
2013-04-23 01:01:00,14.3,11.4,22.60,NE,46,0.0,21.0,88,0.00,,,0.00,Wunderground v.1.15,2013-04-23 07:01:00,
2013-04-23 01:03:00,14.4,11.5,22.61,North,359,0.0,21.0,88,0.00,,,0.00,Wunderground v.1.15,2013-04-23 07:03:00,
2013-04-23 01:05:00,14.3,11.4,22.61,NNW,339,0.0,21.0,88,0.00,,,0.00,Wunderground v.1.15,2013-04-23 07:05:00,
2013-04-23 01:07:00,14.3,11.4,22.61,NNE,32,0.0,21.0,88,0.00,,,0.00,Wunderground v.1.15,2013-04-23 07:07:00,
2013-04-23 01:09:00,14.3,11.4,22.60,NNE,33,0.0,21.0,88,0.00,,,0.00,Wunderground v.1.15,2013-04-23 07:09:00,
2013-04-23 01:11:00,14.3,11.4,22.61,North,350,0.0,21.0,88,0.00,,,0.00,Wunderground v.1.15,2013-04-23 07:11:00,
2013-04-23 01:13:00,14.3,11.4,22.60,NNE,12,0.0,21.0,88,0.00,,,0.00,Wunderground v.1.15,2013-04-23 07:13:00,
2013-04-23 01:19:00,14.3,11.4,22.60,North,354,0.0,21.0,88,0.00,,,0.00,Wunderground v.1.15,2013-04-23 07:19:00,
2013-04-23 01:21:00,14.3,11.4,22.61,NNE,32,0.0,21.0,88,0.00,,,0.00,Wunderground v.1.15,2013-04-23 07:21:00,
2013-04-23 01:25:00,14.3,11.4,22.61,WSW,238,0.0,21.0,88,0.00,,,0.00,Wunderground v.1.15,2013-04-23 07:25:00,
2013-04-23 01:27:00,14.3,11.1,22.61,SSW,197,0.0,21.0,87,0.00,,,0.00,Wunderground v.1.15,2013-04-23 07:27:00,
2013-04-23 01:29:00,14.3,11.1,22.61,SSW,197,0.0,21.0,87,0.00,,,0.00,Wunderground v.1.15,2013-04-23 07:29:00,
2013-04-23 01:31:00,14.3,11.4,22.60,ENE,67,0.0,21.0,88,0.00,,,0.00,Wunderground v.1.15,2013-04-23 07:31:00,
2013-04-23 01:35:00,14.2,11.3,22.60,SSW,200,0.0,21.0,88,0.00,,,0.00,Wunderground v.1.15,2013-04-23 07:35:00,
2013-04-23 01:37:00,14.2,11.3,22.60,SE,138,0.0,21.0,88,0.00,,,0.00,Wunderground v.1.15,2013-04-23 07:37:00,
2013-04-23 01:39:00,14.2,11.3,22.61,SE,141,0.0,21.0,88,0.00,,,0.00,Wunderground v.1.15,2013-04-23 07:39:00,
2013-04-23 01:45:00,14.2,11.3,22.59,NE,46,0.0,21.0,88,0.00,,,0.00,Wunderground v.1.15,2013-04-23 07:45:00,
2013-04-23 01:47:00,14.1,11.2,22.59,NE,49,0.0,21.0,88,0.00,,,0.00,Wunderground v.1.15,2013-04-23 07:47:00,
2013-04-23 01:49:00,14.1,11.2,22.59,East,88,0.0,21.0,88,0.00,,,0.00,Wunderground v.1.15,2013-04-23 07:49:00,
2013-04-23 01:53:00,14.1,11.2,22.59,ESE,117,0.0,21.0,88,0.00,,,0.00,Wunderground v.1.15,2013-04-23 07:53:00,
2013-04-23 01:55:00,14.1,11.2,22.59,ESE,117,0.0,21.0,88,0.00,,,0.00,Wunderground v.1.15,2013-04-23 07:55:00,
2013-04-23 01:57:00,14.0,11.1,22.60,North,6,0.0,21.0,88,0.00,,,0.00,Wunderground v.1.15,2013-04-23 07:57:00,
2013-04-23 01:59:00,14.0,11.1,22.60,North,6,0.0,21.0,88,0.00,,,0.00,Wunderground v.1.15,2013-04-23 07:59:00,
2013-04-23 02:01:00,14.0,11.1,22.59,NNE,18,0.0,21.0,88,0.00,,,0.00,Wunderground v.1.15,2013-04-23 08:01:00,
2013-04-23 02:05:00,14.0,11.1,22.58,East,84,0.0,21.0,88,0.00,,,0.00,Wunderground v.1.15,2013-04-23 08:05:00,
2013-04-23 02:07:00,14.0,11.1,22.59,NNW,334,0.0,21.0,88,0.00,,,0.00,Wunderground v.1.15,2013-04-23 08:07:00,
2013-04-23 02:09:00,13.9,11.0,22.59,NW,323,0.0,21.0,88,0.00,,,0.00,Wunderground v.1.15,2013-04-23 08:09:00,
2013-04-23 02:13:00,13.9,11.0,22.58,ENE,70,0.0,21.0,88,0.00,,,0.00,Wunderground v.1.15,2013-04-23 08:13:00,
2013-04-23 02:15:00,13.9,11.0,22.59,SSE,160,0.0,21.0,88,0.00,,,0.00,Wunderground v.1.15,2013-04-23 08:15:00,
2013-04-23 02:17:00,13.9,11.0,22.59,ESE,117,0.0,21.0,88,0.00,,,0.00,Wunderground v.1.15,2013-04-23 08:17:00,
2013-04-23 02:19:00,13.9,11.0,22.59,SE,141,0.0,21.0,88,0.00,,,0.00,Wunderground v.1.15,2013-04-23 08:19:00,
2013-04-23 02:21:00,13.9,11.0,22.59,SE,129,0.0,21.0,88,0.00,,,0.00,Wunderground v.1.15,2013-04-23 08:21:00,
2013-04-23 02:23:00,13.8,10.9,22.59,ENE,74,0.0,21.0,88,0.00,,,0.00,Wunderground v.1.15,2013-04-23 08:23:00,
2013-04-23 02:25:00,13.8,10.9,22.58,SE,129,0.0,21.0,88,0.00,,,0.00,Wunderground v.1.15,2013-04-23 08:25:00,
2013-04-23 02:27:00,13.7,10.8,22.58,South,181,0.0,21.0,88,0.00,,,0.00,Wunderground v.1.15,2013-04-23 08:27:00,
2013-04-23 02:29:00,13.7,10.8,22.58,WSW,243,0.0,21.0,88,0.00,,,0.00,Wunderground v.1.15,2013-04-23 08:29:00,
2013-04-23 02:31:00,13.7,10.5,22.58,West,264,0.0,21.0,87,0.00,,,0.00,Wunderground v.1.15,2013-04-23 08:31:00,
2013-04-23 02:33:00,13.7,10.8,22.59,SE,146,0.0,21.0,88,0.00,,,0.00,Wunderground v.1.15,2013-04-23 08:33:00,
2013-04-23 02:37:00,13.6,10.7,22.58,SSW,193,0.0,21.0,88,0.00,,,0.00,Wunderground v.1.15,2013-04-23 08:37:00,
2013-04-23 02:39:00,13.6,10.7,22.57,North,355,0.0,21.0,88,0.00,,,0.00,Wunderground v.1.15,2013-04-23 08:39:00,
2013-04-23 02:41:00,13.6,10.7,22.57,ENE,74,0.0,21.0,88,0.00,,,0.00,Wunderground v.1.15,2013-04-23 08:41:00,
2013-04-23 02:43:00,13.6,10.5,22.57,NE,51,0.0,21.0,87,0.00,,,0.00,Wunderground v.1.15,2013-04-23 08:43:00,
2013-04-23 02:49:00,13.5,10.6,22.57,NNW,333,0.0,21.0,88,0.00,,,0.00,Wunderground v.1.15,2013-04-23 08:49:00,
2013-04-23 02:51:00,13.4,10.3,22.57,NW,308,0.0,21.0,87,0.00,,,0.00,Wunderground v.1.15,2013-04-23 08:51:00,
2013-04-23 02:55:00,13.3,10.4,22.57,NNW,344,0.0,21.0,88,0.00,,,0.00,Wunderground v.1.15,2013-04-23 08:55:00,
2013-04-23 03:01:00,13.3,10.4,22.57,SE,124,0.0,21.0,88,0.00,,,0.00,Wunderground v.1.15,2013-04-23 09:01:00,
2013-04-23 03:03:00,13.3,10.4,22.58,ENE,71,0.0,21.0,88,0.00,,,0.00,Wunderground v.1.15,2013-04-23 09:03:00,
2013-04-23 03:05:00,13.3,10.4,22.57,North,358,0.0,21.0,88,0.00,,,0.00,Wunderground v.1.15,2013-04-23 09:05:00,
2013-04-23 03:07:00,13.3,10.4,22.57,WNW,299,0.0,21.0,88,0.00,,,0.00,Wunderground v.1.15,2013-04-23 09:07:00,
2013-04-23 03:09:00,13.3,10.4,22.57,ENE,71,0.0,21.0,88,0.00,,,0.00,Wunderground v.1.15,2013-04-23 09:09:00,
2013-04-23 03:11:00,13.3,10.4,22.57,NNW,343,0.0,21.0,88,0.00,,,0.00,Wunderground v.1.15,2013-04-23 09:11:00,
2013-04-23 03:15:00,13.3,10.2,22.57,NNW,336,0.0,21.0,87,0.00,,,0.00,Wunderground v.1.15,2013-04-23 09:15:00,
2013-04-23 03:19:00,13.3,10.2,22.57,North,355,0.0,21.0,87,0.00,,,0.00,Wunderground v.1.15,2013-04-23 09:19:00,
2013-04-23 03:21:00,13.2,10.1,22.57,NNW,347,0.0,21.0,87,0.00,,,0.00,Wunderground v.1.15,2013-04-23 09:21:00,
2013-04-23 03:25:00,13.2,10.1,22.58,North,356,0.0,21.0,87,0.00,,,0.00,Wunderground v.1.15,2013-04-23 09:25:00,
2013-04-23 03:27:00,13.3,10.2,22.58,East,88,0.0,21.0,87,0.00,,,0.00,Wunderground v.1.15,2013-04-23 09:27:00,
2013-04-23 03:29:00,13.2,10.1,22.58,North,360,0.0,21.0,87,0.00,,,0.00,Wunderground v.1.15,2013-04-23 09:29:00,
2013-04-23 03:31:00,13.2,10.1,22.58,NNE,18,0.0,21.0,87,0.00,,,0.00,Wunderground v.1.15,2013-04-23 09:31:00,
2013-04-23 03:35:00,13.2,10.3,22.57,NNE,19,0.0,21.0,88,0.00,,,0.00,Wunderground v.1.15,2013-04-23 09:35:00,
2013-04-23 03:37:00,13.2,10.3,22.58,ENE,68,0.0,21.0,88,0.00,,,0.00,Wunderground v.1.15,2013-04-23 09:37:00,
2013-04-23 03:39:00,13.2,10.3,22.58,ESE,103,0.0,21.0,88,0.00,,,0.00,Wunderground v.1.15,2013-04-23 09:39:00,
2013-04-23 03:45:00,13.2,10.3,22.58,North,8,0.0,21.0,88,0.00,,,0.00,Wunderground v.1.15,2013-04-23 09:45:00,
2013-04-23 03:47:00,13.2,10.3,22.58,North,8,0.0,21.0,88,0.00,,,0.00,Wunderground v.1.15,2013-04-23 09:47:00,
2013-04-23 03:49:00,13.2,10.3,22.58,NNW,335,0.0,21.0,88,0.00,,,0.00,Wunderground v.1.15,2013-04-23 09:49:00,
2013-04-23 03:51:00,13.2,10.3,22.57,North,352,0.0,21.0,88,0.00,,,0.00,Wunderground v.1.15,2013-04-23 09:51:00,
2013-04-23 03:53:00,13.2,10.3,22.57,North,9,0.0,21.0,88,0.00,,,0.00,Wunderground v.1.15,2013-04-23 09:53:00,
2013-04-23 03:55:00,13.2,10.3,22.57,North,11,0.0,21.0,88,0.00,,,0.00,Wunderground v.1.15,2013-04-23 09:55:00,
2013-04-23 03:57:00,13.1,10.2,22.56,NNE,22,0.0,21.0,88,0.00,,,0.00,Wunderground v.1.15,2013-04-23 09:57:00,
2013-04-23 03:59:00,13.1,10.2,22.56,NW,318,0.0,21.0,88,0.00,,,0.00,Wunderground v.1.15,2013-04-23 09:59:00,
2013-04-23 04:01:00,13.0,10.1,22.57,NNE,29,0.0,21.0,88,0.00,,,0.00,Wunderground v.1.15,2013-04-23 10:01:00,
2013-04-23 04:03:00,13.0,10.1,22.57,NNE,30,0.0,21.0,88,0.00,,,0.00,Wunderground v.1.15,2013-04-23 10:03:00,
2013-04-23 04:07:00,13.0,10.1,22.58,NNE,30,0.0,21.0,88,0.00,,,0.00,Wunderground v.1.15,2013-04-23 10:07:00,
2013-04-23 04:11:00,13.0,10.1,22.57,NNW,336,0.0,21.0,88,0.00,,,0.00,Wunderground v.1.15,2013-04-23 10:11:00,
2013-04-23 04:13:00,13.0,10.1,22.57,North,354,0.0,21.0,88,0.00,,,0.00,Wunderground v.1.15,2013-04-23 10:13:00,
2013-04-23 04:17:00,12.9,10.0,22.58,ENE,60,0.0,21.0,88,0.00,,,0.00,Wunderground v.1.15,2013-04-23 10:17:00,
2013-04-23 04:19:00,12.9,10.0,22.58,ENE,72,0.0,21.0,88,0.00,,,0.00,Wunderground v.1.15,2013-04-23 10:19:00,
2013-04-23 04:21:00,12.9,10.0,22.58,NE,54,0.0,21.0,88,0.00,,,0.00,Wunderground v.1.15,2013-04-23 10:21:00,
2013-04-23 04:23:00,12.9,10.0,22.57,NNE,18,0.0,21.0,88,0.00,,,0.00,Wunderground v.1.15,2013-04-23 10:23:00,
2013-04-23 04:27:00,12.9,10.0,22.57,NNW,343,0.0,21.0,88,0.00,,,0.00,Wunderground v.1.15,2013-04-23 10:27:00,
2013-04-23 04:31:00,12.8,9.9,22.57,NNW,338,0.0,21.0,88,0.00,,,0.00,Wunderground v.1.15,2013-04-23 10:31:00,
2013-04-23 04:33:00,12.8,9.9,22.56,ENE,74,0.0,21.0,88,0.00,,,0.00,Wunderground v.1.15,2013-04-23 10:33:00,
2013-04-23 04:37:00,12.8,9.9,22.57,SE,143,0.0,21.0,88,0.00,,,0.00,Wunderground v.1.15,2013-04-23 10:37:00,
2013-04-23 04:39:00,12.8,9.9,22.57,North,4,0.0,21.0,88,0.00,,,0.00,Wunderground v.1.15,2013-04-23 10:39:00,
2013-04-23 04:41:00,12.8,9.9,22.57,NNW,337,0.0,21.0,88,0.00,,,0.00,Wunderground v.1.15,2013-04-23 10:41:00,
2013-04-23 04:45:00,12.8,9.7,22.57,North,356,0.0,21.0,87,0.00,,,0.00,Wunderground v.1.15,2013-04-23 10:45:00,
2013-04-23 04:47:00,12.8,9.9,22.57,ESE,108,0.0,21.0,88,0.00,,,0.00,Wunderground v.1.15,2013-04-23 10:47:00,
2013-04-23 04:49:00,12.8,9.9,22.57,North,358,0.0,21.0,88,0.00,,,0.00,Wunderground v.1.15,2013-04-23 10:49:00,
2013-04-23 04:51:00,12.8,9.9,22.57,NNE,20,0.0,21.0,88,0.00,,,0.00,Wunderground v.1.15,2013-04-23 10:51:00,
2013-04-23 04:55:00,12.8,9.9,22.57,North,355,0.0,21.0,88,0.00,,,0.00,Wunderground v.1.15,2013-04-23 10:55:00,
2013-04-23 04:57:00,12.8,9.9,22.56,NW,316,0.0,21.0,88,0.00,,,0.00,Wunderground v.1.15,2013-04-23 10:57:00,
2013-04-23 04:59:00,12.7,9.8,22.56,North,8,0.0,21.0,88,0.00,,,0.00,Wunderground v.1.15,2013-04-23 10:59:00,
2013-04-23 05:01:00,12.7,9.8,22.57,NW,317,0.0,21.0,88,0.00,,,0.00,Wunderground v.1.15,2013-04-23 11:01:00,
2013-04-23 05:03:00,12.7,9.8,22.57,ENE,74,0.0,21.0,88,0.00,,,0.00,Wunderground v.1.15,2013-04-23 11:03:00,
2013-04-23 05:05:00,12.6,9.7,22.57,East,89,0.0,21.0,88,0.00,,,0.00,Wunderground v.1.15,2013-04-23 11:05:00,
2013-04-23 05:09:00,12.6,9.5,22.57,NNE,15,0.0,21.0,87,0.00,,,0.00,Wunderground v.1.15,2013-04-23 11:09:00,
2013-04-23 05:11:00,12.6,9.5,22.57,North,1,0.0,21.0,87,0.00,,,0.00,Wunderground v.1.15,2013-04-23 11:11:00,
2013-04-23 05:15:00,12.5,9.4,22.57,NE,34,0.0,21.0,87,0.00,,,0.00,Wunderground v.1.15,2013-04-23 11:15:00,
2013-04-23 05:17:00,12.4,9.3,22.57,NNW,340,0.0,21.0,87,0.00,,,0.00,Wunderground v.1.15,2013-04-23 11:17:00,
2013-04-23 05:19:00,12.4,9.3,22.57,NNE,22,0.0,21.0,87,0.00,,,0.00,Wunderground v.1.15,2013-04-23 11:19:00,
2013-04-23 05:23:00,12.3,9.2,22.56,NE,51,0.0,21.0,87,0.00,,,0.00,Wunderground v.1.15,2013-04-23 11:23:00,
2013-04-23 05:25:00,12.2,9.1,22.57,NNW,333,0.0,21.0,87,0.00,,,0.00,Wunderground v.1.15,2013-04-23 11:25:00,
2013-04-23 05:27:00,12.2,9.1,22.57,NNW,336,0.0,21.0,87,0.00,,,0.00,Wunderground v.1.15,2013-04-23 11:27:00,
2013-04-23 05:29:00,12.2,9.1,22.58,North,357,0.0,21.0,87,0.00,,,0.00,Wunderground v.1.15,2013-04-23 11:29:00,
2013-04-23 05:35:00,12.1,9.2,22.57,NE,51,0.0,21.0,88,0.00,,,0.00,Wunderground v.1.15,2013-04-23 11:35:00,
2013-04-23 05:39:00,12.1,9.0,22.56,NNW,343,0.0,21.0,87,0.00,,,0.00,Wunderground v.1.15,2013-04-23 11:39:00,
2013-04-23 05:41:00,12.1,9.0,22.57,North,358,0.0,21.0,87,0.00,,,0.00,Wunderground v.1.15,2013-04-23 11:41:00,
2013-04-23 05:47:00,11.9,8.8,22.57,North,359,0.0,21.0,87,0.00,,,0.00,Wunderground v.1.15,2013-04-23 11:47:00,
2013-04-23 05:49:00,11.9,8.8,22.57,NE,41,0.0,21.0,87,0.00,,,0.00,Wunderground v.1.15,2013-04-23 11:49:00,
2013-04-23 05:55:00,11.9,8.8,22.57,North,355,0.0,21.0,87,0.00,,,0.00,Wunderground v.1.15,2013-04-23 11:55:00,
2013-04-23 05:57:00,11.9,8.8,22.57,North,6,0.0,21.0,87,0.00,,,0.00,Wunderground v.1.15,2013-04-23 11:57:00,
2013-04-23 06:03:00,11.8,8.7,22.56,ENE,63,0.0,21.0,87,0.00,,,0.00,Wunderground v.1.15,2013-04-23 12:03:00,
2013-04-23 06:05:00,11.8,8.7,22.56,NE,40,0.0,21.0,87,0.00,,,0.00,Wunderground v.1.15,2013-04-23 12:05:00,
2013-04-23 06:07:00,11.8,8.7,22.57,NE,46,0.0,21.0,87,0.00,,,0.00,Wunderground v.1.15,2013-04-23 12:07:00,
2013-04-23 06:09:00,11.8,8.9,22.57,NNE,15,0.0,21.0,88,0.00,,,0.00,Wunderground v.1.15,2013-04-23 12:09:00,
2013-04-23 06:11:00,11.8,8.7,22.57,NNE,23,0.0,21.0,87,0.00,,,0.00,Wunderground v.1.15,2013-04-23 12:11:00,
2013-04-23 06:15:00,11.8,8.7,22.57,NNW,334,0.0,21.0,87,0.00,,,0.00,Wunderground v.1.15,2013-04-23 12:15:00,
2013-04-23 06:19:00,11.7,8.6,22.57,North,358,0.0,21.0,87,0.00,,,0.00,Wunderground v.1.15,2013-04-23 12:19:00,
2013-04-23 06:21:00,11.7,8.6,22.57,NNW,338,0.0,21.0,87,0.00,,,0.00,Wunderground v.1.15,2013-04-23 12:21:00,
2013-04-23 06:25:00,11.7,8.6,22.57,NNW,328,0.0,21.0,87,0.00,,,0.00,Wunderground v.1.15,2013-04-23 12:25:00,
2013-04-23 06:27:00,11.7,8.6,22.57,NE,47,0.0,21.0,87,0.00,,,0.00,Wunderground v.1.15,2013-04-23 12:27:00,
2013-04-23 06:29:00,11.7,8.6,22.57,NW,315,0.0,21.0,87,0.00,,,0.00,Wunderground v.1.15,2013-04-23 12:29:00,
2013-04-23 06:31:00,11.7,8.6,22.57,North,1,0.0,21.0,87,0.00,,,0.00,Wunderground v.1.15,2013-04-23 12:31:00,
2013-04-23 06:35:00,11.7,8.6,22.57,NNE,30,0.0,21.0,87,0.00,,,0.00,Wunderground v.1.15,2013-04-23 12:35:00,
2013-04-23 06:39:00,11.7,8.6,22.57,NNE,18,0.0,21.0,87,0.00,,,0.00,Wunderground v.1.15,2013-04-23 12:39:00,
2013-04-23 06:41:00,11.7,8.6,22.57,North,4,0.0,21.0,87,0.00,,,0.00,Wunderground v.1.15,2013-04-23 12:41:00,
2013-04-23 06:45:00,11.8,8.9,22.57,NNE,12,0.0,21.0,88,0.00,,,0.00,Wunderground v.1.15,2013-04-23 12:45:00,
2013-04-23 06:51:00,11.9,8.8,22.57,NNW,338,0.0,21.0,87,0.00,,,0.00,Wunderground v.1.15,2013-04-23 12:51:00,
2013-04-23 06:53:00,11.9,8.8,22.57,NNW,344,0.0,21.0,87,0.00,,,0.00,Wunderground v.1.15,2013-04-23 12:53:00,
2013-04-23 06:57:00,12.0,8.9,22.57,NNW,340,0.0,21.0,87,0.00,,,0.00,Wunderground v.1.15,2013-04-23 12:57:00,
2013-04-23 07:01:00,12.1,9.0,22.58,NE,49,0.0,21.0,87,0.00,,,0.00,Wunderground v.1.15,2013-04-23 13:01:00,
2013-04-23 07:03:00,12.1,9.0,22.58,NW,325,0.0,21.0,87,0.00,,,0.00,Wunderground v.1.15,2013-04-23 13:03:00,
2013-04-23 07:05:00,12.1,9.0,22.58,NW,321,0.0,21.0,87,0.00,,,0.00,Wunderground v.1.15,2013-04-23 13:05:00,
2013-04-23 07:07:00,12.2,9.1,22.58,NNW,333,0.0,21.0,87,0.00,,,0.00,Wunderground v.1.15,2013-04-23 13:07:00,
2013-04-23 07:09:00,12.3,9.2,22.58,North,8,0.0,21.0,87,0.00,,,0.00,Wunderground v.1.15,2013-04-23 13:09:00,
2013-04-23 07:11:00,12.3,9.2,22.58,North,1,0.0,21.0,87,0.00,,,0.00,Wunderground v.1.15,2013-04-23 13:11:00,
2013-04-23 07:13:00,12.4,9.3,22.58,North,354,0.0,21.0,87,0.00,,,0.00,Wunderground v.1.15,2013-04-23 13:13:00,
2013-04-23 07:17:00,12.5,9.4,22.58,NNE,25,0.0,21.0,87,0.00,,,0.00,Wunderground v.1.15,2013-04-23 13:17:00,
2013-04-23 07:21:00,12.6,9.2,22.58,NNW,330,0.0,21.0,86,0.00,,,0.00,Wunderground v.1.15,2013-04-23 13:21:00,
2013-04-23 07:23:00,12.6,9.2,22.58,NW,316,0.0,21.0,86,0.00,,,0.00,Wunderground v.1.15,2013-04-23 13:23:00,
2013-04-23 07:27:00,12.6,8.9,22.58,NNW,336,0.0,21.0,85,0.00,,,0.00,Wunderground v.1.15,2013-04-23 13:27:00,
2013-04-23 07:29:00,12.6,8.9,22.58,NNE,12,0.0,21.0,85,0.00,,,0.00,Wunderground v.1.15,2013-04-23 13:29:00,
2013-04-23 07:31:00,12.8,9.4,22.58,NE,39,0.0,21.0,86,0.00,,,0.00,Wunderground v.1.15,2013-04-23 13:31:00,
2013-04-23 07:35:00,13.1,9.4,22.58,NNW,327,0.0,21.0,85,0.00,,,0.00,Wunderground v.1.15,2013-04-23 13:35:00,
2013-04-23 07:37:00,13.3,9.6,22.58,NE,44,0.0,21.0,85,0.00,,,0.00,Wunderground v.1.15,2013-04-23 13:37:00,
2013-04-23 07:39:00,13.4,9.7,22.58,North,351,0.0,21.0,85,0.00,,,0.00,Wunderground v.1.15,2013-04-23 13:39:00,
2013-04-23 07:41:00,13.5,9.8,22.58,NNE,18,0.0,21.0,85,0.00,,,0.00,Wunderground v.1.15,2013-04-23 13:41:00,
2013-04-23 07:45:00,13.7,9.8,22.58,North,349,0.0,21.0,84,0.00,,,0.00,Wunderground v.1.15,2013-04-23 13:45:00,
2013-04-23 07:47:00,13.8,9.9,22.58,North,11,0.0,21.0,84,0.00,,,0.00,Wunderground v.1.15,2013-04-23 13:47:00,
2013-04-23 07:49:00,13.8,9.9,22.58,NW,323,0.0,21.0,84,0.00,,,0.00,Wunderground v.1.15,2013-04-23 13:49:00,
2013-04-23 07:53:00,13.7,9.5,22.58,NNW,333,0.0,21.0,83,0.00,,,0.00,Wunderground v.1.15,2013-04-23 13:53:00,
2013-04-23 07:55:00,13.7,9.8,22.58,ENE,57,0.0,21.0,84,0.00,,,0.00,Wunderground v.1.15,2013-04-23 13:55:00,
2013-04-23 07:57:00,13.9,10.0,22.58,NE,51,0.0,21.0,84,0.00,,,0.00,Wunderground v.1.15,2013-04-23 13:57:00,
2013-04-23 07:59:00,14.0,10.1,22.58,North,1,0.0,21.0,84,0.00,,,0.00,Wunderground v.1.15,2013-04-23 13:59:00,
2013-04-23 08:01:00,14.2,10.0,22.58,NNW,333,0.0,21.0,83,0.00,,,0.00,Wunderground v.1.15,2013-04-23 14:01:00,
2013-04-23 08:03:00,14.3,9.8,22.58,North,358,0.0,21.0,82,0.00,,,0.00,Wunderground v.1.15,2013-04-23 14:03:00,
2013-04-23 08:05:00,14.4,9.9,22.58,NNW,346,0.0,21.0,82,0.00,,,0.00,Wunderground v.1.15,2013-04-23 14:05:00,
2013-04-23 08:07:00,14.3,9.8,22.58,North,9,0.0,21.0,82,0.00,,,0.00,Wunderground v.1.15,2013-04-23 14:07:00,
2013-04-23 08:09:00,14.4,9.9,22.58,East,81,0.0,21.0,82,0.00,,,0.00,Wunderground v.1.15,2013-04-23 14:09:00,
2013-04-23 08:11:00,14.5,10.0,22.58,NNW,328,0.0,21.0,82,0.00,,,0.00,Wunderground v.1.15,2013-04-23 14:11:00,
2013-04-23 08:15:00,14.6,10.1,22.58,NNW,341,0.0,21.0,82,0.00,,,0.00,Wunderground v.1.15,2013-04-23 14:15:00,
2013-04-23 08:17:00,14.5,10.0,22.58,North,11,0.0,21.0,82,0.00,,,0.00,Wunderground v.1.15,2013-04-23 14:17:00,
2013-04-23 08:19:00,14.4,9.9,22.58,NW,306,0.0,21.0,82,0.00,,,0.00,Wunderground v.1.15,2013-04-23 14:19:00,
2013-04-23 08:21:00,14.6,10.4,22.58,NNW,329,0.0,21.0,83,0.00,,,0.00,Wunderground v.1.15,2013-04-23 14:21:00,
2013-04-23 08:23:00,14.6,10.1,22.58,NW,316,0.0,21.0,82,0.00,,,0.00,Wunderground v.1.15,2013-04-23 14:23:00,
2013-04-23 08:27:00,14.4,9.6,22.58,NNW,328,0.0,21.0,81,0.00,,,0.00,Wunderground v.1.15,2013-04-23 14:27:00,
2013-04-23 08:29:00,14.4,9.9,22.58,East,99,0.0,21.0,82,0.00,,,0.00,Wunderground v.1.15,2013-04-23 14:29:00,
2013-04-23 08:31:00,14.5,10.0,22.58,NNW,347,0.0,21.0,82,0.00,,,0.00,Wunderground v.1.15,2013-04-23 14:31:00,
2013-04-23 08:33:00,14.5,9.7,22.58,ENE,70,0.0,21.0,81,0.00,,,0.00,Wunderground v.1.15,2013-04-23 14:33:00,
2013-04-23 08:35:00,14.6,10.1,22.58,North,350,0.0,21.0,82,0.00,,,0.00,Wunderground v.1.15,2013-04-23 14:35:00,
2013-04-23 08:37:00,14.5,9.7,22.58,NNW,335,0.0,21.0,81,0.00,,,0.00,Wunderground v.1.15,2013-04-23 14:37:00,
2013-04-23 08:39:00,14.4,9.4,22.58,NNW,330,0.0,21.0,80,0.00,,,0.00,Wunderground v.1.15,2013-04-23 14:39:00,
2013-04-23 08:41:00,14.5,9.7,22.58,NNW,333,0.0,21.0,81,0.00,,,0.00,Wunderground v.1.15,2013-04-23 14:41:00,
2013-04-23 08:45:00,14.7,9.9,22.58,NE,40,0.0,21.0,81,0.00,,,0.00,Wunderground v.1.15,2013-04-23 14:45:00,
2013-04-23 08:47:00,15.1,10.3,22.58,NNW,340,0.0,21.0,81,0.00,,,0.00,Wunderground v.1.15,2013-04-23 14:47:00,
2013-04-23 08:51:00,15.5,10.7,22.58,NNE,15,0.0,21.0,81,0.00,,,0.00,Wunderground v.1.15,2013-04-23 14:51:00,
2013-04-23 08:53:00,15.5,10.1,22.58,NNW,338,0.0,21.0,79,0.00,,,0.00,Wunderground v.1.15,2013-04-23 14:53:00,
2013-04-23 08:57:00,15.7,10.6,22.58,NNE,22,0.0,21.0,80,0.00,,,0.00,Wunderground v.1.15,2013-04-23 14:57:00,
2013-04-23 08:59:00,15.9,10.8,22.58,NW,318,0.0,21.0,80,0.00,,,0.00,Wunderground v.1.15,2013-04-23 14:59:00,
2013-04-23 09:01:00,16.2,11.1,22.58,NNW,346,0.0,21.0,80,0.00,,,0.00,Wunderground v.1.15,2013-04-23 15:01:00,
2013-04-23 09:03:00,16.3,10.9,22.58,NNE,15,0.0,21.0,79,0.00,,,0.00,Wunderground v.1.15,2013-04-23 15:03:00,
2013-04-23 09:05:00,16.3,10.9,22.58,NE,51,0.0,21.0,79,0.00,,,0.00,Wunderground v.1.15,2013-04-23 15:05:00,
2013-04-23 09:09:00,16.5,11.1,22.58,NNW,343,0.0,21.0,79,0.00,,,0.00,Wunderground v.1.15,2013-04-23 15:09:00,
2013-04-23 09:11:00,16.4,10.7,22.58,NNE,15,0.0,21.0,78,0.00,,,0.00,Wunderground v.1.15,2013-04-23 15:11:00,
2013-04-23 09:13:00,16.3,10.6,22.58,NNW,333,0.0,21.0,78,0.00,,,0.00,Wunderground v.1.15,2013-04-23 15:13:00,
2013-04-23 09:17:00,16.4,11.0,22.58,NNW,333,0.0,21.0,79,0.00,,,0.00,Wunderground v.1.15,2013-04-23 15:17:00,
2013-04-23 09:21:00,16.4,11.3,22.58,NNE,27,0.0,21.0,80,0.00,,,0.00,Wunderground v.1.15,2013-04-23 15:21:00,
2013-04-23 09:23:00,16.4,11.3,22.58,NNE,33,0.0,21.0,80,0.00,,,0.00,Wunderground v.1.15,2013-04-23 15:23:00,
2013-04-23 09:25:00,16.5,11.4,22.58,NNE,15,0.0,21.0,80,0.00,,,0.00,Wunderground v.1.15,2013-04-23 15:25:00,
2013-04-23 09:27:00,16.9,11.8,22.58,North,6,0.0,21.0,80,0.00,,,0.00,Wunderground v.1.15,2013-04-23 15:27:00,
2013-04-23 09:29:00,17.1,11.7,22.58,NW,312,0.0,21.0,79,0.00,,,0.00,Wunderground v.1.15,2013-04-23 15:29:00,
2013-04-23 09:31:00,17.2,11.8,22.58,North,4,0.0,21.0,79,0.00,,,0.00,Wunderground v.1.15,2013-04-23 15:31:00,
2013-04-23 09:33:00,17.2,11.8,22.58,NNW,343,0.0,21.0,79,0.00,,,0.00,Wunderground v.1.15,2013-04-23 15:33:00,
2013-04-23 09:35:00,17.4,12.0,22.58,NW,323,0.0,21.0,79,0.00,,,0.00,Wunderground v.1.15,2013-04-23 15:35:00,
2013-04-23 09:37:00,17.4,11.7,22.58,ENE,70,0.0,21.0,78,0.00,,,0.00,Wunderground v.1.15,2013-04-23 15:37:00,
2013-04-23 09:39:00,17.5,12.1,22.58,NNE,25,0.0,21.0,79,0.00,,,0.00,Wunderground v.1.15,2013-04-23 15:39:00,
2013-04-23 09:41:00,17.7,12.3,22.58,WNW,302,0.0,21.0,79,0.00,,,0.00,Wunderground v.1.15,2013-04-23 15:41:00,
2013-04-23 09:43:00,17.9,12.2,22.58,NW,318,0.0,21.0,78,0.00,,,0.00,Wunderground v.1.15,2013-04-23 15:43:00,
2013-04-23 09:45:00,18.0,12.0,22.58,NNE,27,0.0,21.0,77,0.00,,,0.00,Wunderground v.1.15,2013-04-23 15:45:00,
2013-04-23 09:47:00,18.0,12.0,22.58,NNW,336,0.0,21.0,77,0.00,,,0.00,Wunderground v.1.15,2013-04-23 15:47:00,
2013-04-23 09:51:00,18.2,11.9,22.58,North,349,0.0,21.0,76,0.00,,,0.00,Wunderground v.1.15,2013-04-23 15:51:00,
2013-04-23 09:55:00,18.3,12.3,22.58,NE,34,0.0,21.0,77,0.00,,,0.00,Wunderground v.1.15,2013-04-23 15:55:00,
2013-04-23 09:57:00,18.4,12.4,22.58,East,101,0.0,21.0,77,0.00,,,0.00,Wunderground v.1.15,2013-04-23 15:57:00,
2013-04-23 10:01:00,18.9,13.2,22.58,North,354,0.0,21.0,78,0.00,,,0.00,Wunderground v.1.15,2013-04-23 16:01:00,
2013-04-23 10:03:00,18.9,12.3,22.58,ENE,57,0.0,21.0,75,0.00,,,0.00,Wunderground v.1.15,2013-04-23 16:03:00,
2013-04-23 10:07:00,19.2,12.9,22.58,ENE,64,0.0,21.0,76,0.00,,,0.00,Wunderground v.1.15,2013-04-23 16:07:00,
2013-04-23 10:11:00,19.6,13.6,22.58,NNW,339,0.0,21.0,77,0.00,,,0.00,Wunderground v.1.15,2013-04-23 16:11:00,
2013-04-23 10:13:00,19.7,12.8,22.58,West,270,0.0,21.0,74,0.00,,,0.00,Wunderground v.1.15,2013-04-23 16:13:00,
2013-04-23 10:15:00,19.9,12.9,22.58,North,354,0.0,21.0,74,0.00,,,0.00,Wunderground v.1.15,2013-04-23 16:15:00,
2013-04-23 10:17:00,19.9,12.6,22.58,NNE,19,0.0,21.0,73,0.00,,,0.00,Wunderground v.1.15,2013-04-23 16:17:00,
2013-04-23 10:19:00,19.8,12.2,22.58,NNW,348,0.0,21.0,72,0.00,,,0.00,Wunderground v.1.15,2013-04-23 16:19:00,
2013-04-23 10:23:00,20.5,14.1,22.58,NE,37,0.0,21.0,76,0.00,,,0.00,Wunderground v.1.15,2013-04-23 16:23:00,
2013-04-23 10:25:00,20.7,12.8,22.57,NE,44,0.0,21.0,71,0.00,,,0.00,Wunderground v.1.15,2013-04-23 16:25:00,
2013-04-23 10:29:00,21.3,13.4,22.57,SSW,210,0.0,21.0,71,0.00,,,0.00,Wunderground v.1.15,2013-04-23 16:29:00,
2013-04-23 10:31:00,21.7,12.1,22.57,SW,215,0.0,21.0,66,0.00,,,0.00,Wunderground v.1.15,2013-04-23 16:31:00,
2013-04-23 10:35:00,22.3,12.7,22.57,SSE,153,0.0,21.0,66,0.00,,,0.00,Wunderground v.1.15,2013-04-23 16:35:00,
2013-04-23 10:37:00,23.1,13.4,22.57,ENE,65,0.0,21.0,66,0.00,,,0.00,Wunderground v.1.15,2013-04-23 16:37:00,
2013-04-23 10:43:00,23.3,13.3,22.57,ENE,70,0.0,21.0,65,0.00,,,0.00,Wunderground v.1.15,2013-04-23 16:43:00,
2013-04-23 10:45:00,23.7,13.3,22.57,SSE,156,0.0,21.0,64,0.00,,,0.00,Wunderground v.1.15,2013-04-23 16:45:00,
2013-04-23 10:49:00,24.3,12.8,22.57,SW,219,0.0,21.0,61,0.00,,,0.00,Wunderground v.1.15,2013-04-23 16:49:00,
2013-04-23 10:51:00,24.9,14.4,22.57,NW,304,0.0,21.0,64,0.00,,,0.00,Wunderground v.1.15,2013-04-23 16:51:00,
2013-04-23 10:55:00,24.4,12.1,22.57,SE,145,0.0,21.0,59,0.00,,,0.00,Wunderground v.1.15,2013-04-23 16:55:00,
2013-04-23 10:57:00,24.6,13.4,22.57,SW,236,0.0,21.0,62,0.00,,,0.00,Wunderground v.1.15,2013-04-23 16:57:00,
2013-04-23 10:59:00,25.3,14.8,22.57,ENE,60,0.0,21.0,64,0.00,,,0.00,Wunderground v.1.15,2013-04-23 16:59:00,
2013-04-23 11:01:00,25.5,13.9,22.57,South,174,0.0,21.0,61,0.00,,,0.00,Wunderground v.1.15,2013-04-23 17:01:00,
2013-04-23 11:03:00,25.7,14.1,22.57,NNE,32,0.0,21.0,61,0.00,,,0.00,Wunderground v.1.15,2013-04-23 17:03:00,
2013-04-23 11:07:00,25.6,13.2,22.57,NE,56,0.0,21.0,59,0.00,,,0.00,Wunderground v.1.15,2013-04-23 17:07:00,
2013-04-23 11:13:00,24.8,11.7,22.57,NW,320,0.0,21.0,57,0.00,,,0.00,Wunderground v.1.15,2013-04-23 17:13:00,
2013-04-23 11:15:00,24.1,10.6,22.57,North,350,0.0,21.0,56,0.00,,,0.00,Wunderground v.1.15,2013-04-23 17:15:00,
2013-04-23 11:21:00,23.6,11.4,22.57,NNE,27,0.0,21.0,59,0.00,,,0.00,Wunderground v.1.15,2013-04-23 17:21:00,
2013-04-23 11:23:00,23.4,11.5,22.57,NE,37,0.0,21.0,60,0.00,,,0.00,Wunderground v.1.15,2013-04-23 17:23:00,
2013-04-23 11:25:00,23.4,11.5,22.57,NW,309,0.0,21.0,60,0.00,,,0.00,Wunderground v.1.15,2013-04-23 17:25:00,
2013-04-23 11:27:00,23.4,11.2,22.57,NNW,334,0.0,21.0,59,0.00,,,0.00,Wunderground v.1.15,2013-04-23 17:27:00,
2013-04-23 11:29:00,23.4,11.2,22.56,NNE,25,0.0,21.0,59,0.00,,,0.00,Wunderground v.1.15,2013-04-23 17:29:00,
2013-04-23 11:31:00,23.3,11.8,22.57,North,11,0.0,21.0,61,0.00,,,0.00,Wunderground v.1.15,2013-04-23 17:31:00,
2013-04-23 11:33:00,23.7,12.2,22.57,NE,56,0.0,21.0,61,0.00,,,0.00,Wunderground v.1.15,2013-04-23 17:33:00,
2013-04-23 11:39:00,24.0,12.1,22.56,NW,323,0.0,21.0,60,0.00,,,0.00,Wunderground v.1.15,2013-04-23 17:39:00,
2013-04-23 11:41:00,24.2,12.3,22.56,NW,316,0.0,21.0,60,0.00,,,0.00,Wunderground v.1.15,2013-04-23 17:41:00,
2013-04-23 11:45:00,24.1,11.8,22.56,SSW,194,0.0,21.0,59,0.00,,,0.00,Wunderground v.1.15,2013-04-23 17:45:00,
2013-04-23 11:47:00,24.7,13.5,22.56,NNE,29,0.0,21.0,62,0.00,,,0.00,Wunderground v.1.15,2013-04-23 17:47:00,
2013-04-23 11:49:00,25.7,14.8,22.56,South,190,0.0,21.0,63,0.00,,,0.00,Wunderground v.1.15,2013-04-23 17:49:00,
2013-04-23 11:53:00,27.2,13.6,22.56,NW,316,0.0,21.0,56,0.00,,,0.00,Wunderground v.1.15,2013-04-23 17:53:00,
2013-04-23 11:55:00,26.9,13.3,22.56,ENE,71,0.0,21.0,56,0.00,,,0.00,Wunderground v.1.15,2013-04-23 17:55:00,
2013-04-23 11:59:00,26.1,14.1,22.56,NNW,339,0.0,21.0,60,0.00,,,0.00,Wunderground v.1.15,2013-04-23 17:59:00,
2013-04-23 12:01:00,25.7,13.3,22.56,ENE,63,0.0,21.0,59,0.00,,,0.00,Wunderground v.1.15,2013-04-23 18:01:00,
2013-04-23 12:03:00,25.4,13.4,22.55,NNW,329,0.0,21.0,60,0.00,,,0.00,Wunderground v.1.15,2013-04-23 18:03:00,
2013-04-23 12:07:00,25.3,13.0,22.55,NNW,332,0.0,21.0,59,0.00,,,0.00,Wunderground v.1.15,2013-04-23 18:07:00,
2013-04-23 12:09:00,25.1,12.4,22.55,North,349,0.0,21.0,58,0.00,,,0.00,Wunderground v.1.15,2013-04-23 18:09:00,
2013-04-23 12:13:00,25.0,11.9,22.55,NNW,347,0.0,21.0,57,0.00,,,0.01,Wunderground v.1.15,2013-04-23 18:13:00,
2013-04-23 12:17:00,24.5,13.0,22.55,NE,54,0.0,21.0,61,0.00,,,0.01,Wunderground v.1.15,2013-04-23 18:17:00,
2013-04-23 12:19:00,24.7,13.5,22.55,ESE,103,0.0,21.0,62,0.00,,,0.01,Wunderground v.1.15,2013-04-23 18:19:00,
2013-04-23 12:21:00,24.6,12.7,22.55,North,9,0.0,21.0,60,0.00,,,0.01,Wunderground v.1.15,2013-04-23 18:21:00,
2013-04-23 12:25:00,24.9,13.0,22.55,NNW,330,0.0,21.0,60,0.00,,,0.01,Wunderground v.1.15,2013-04-23 18:25:00,
2013-04-23 12:27:00,24.9,13.0,22.55,ENE,61,0.0,21.0,60,0.00,,,0.01,Wunderground v.1.15,2013-04-23 18:27:00,
2013-04-23 12:29:00,25.0,13.4,22.54,NE,51,0.0,21.0,61,0.00,,,0.01,Wunderground v.1.15,2013-04-23 18:29:00,
2013-04-23 12:33:00,25.1,13.5,22.54,ENE,57,0.0,21.0,61,0.00,,,0.02,Wunderground v.1.15,2013-04-23 18:33:00,
2013-04-23 12:35:00,25.0,13.4,22.54,North,353,0.0,21.0,61,0.00,,,0.02,Wunderground v.1.15,2013-04-23 18:35:00,
2013-04-23 12:41:00,24.9,14.4,22.54,NE,46,0.0,21.0,64,0.00,,,0.02,Wunderground v.1.15,2013-04-23 18:41:00,
2013-04-23 12:43:00,24.7,13.5,22.54,WNW,297,0.0,21.0,62,0.00,,,0.02,Wunderground v.1.15,2013-04-23 18:43:00,
2013-04-23 12:47:00,25.1,15.0,22.53,NNW,339,0.0,21.0,65,0.00,,,0.02,Wunderground v.1.15,2013-04-23 18:47:00,
2013-04-23 12:51:00,25.0,13.4,22.53,East,94,0.0,21.0,61,0.00,,,0.02,Wunderground v.1.15,2013-04-23 18:51:00,
2013-04-23 12:53:00,24.9,14.4,22.53,NE,37,0.0,21.0,64,0.00,,,0.02,Wunderground v.1.15,2013-04-23 18:53:00,
2013-04-23 12:55:00,24.6,13.8,22.53,NNW,342,0.0,21.0,63,0.00,,,0.03,Wunderground v.1.15,2013-04-23 18:55:00,
2013-04-23 12:57:00,24.6,14.5,22.53,ENE,62,0.0,21.0,65,0.00,,,0.03,Wunderground v.1.15,2013-04-23 18:57:00,
2013-04-23 13:01:00,25.2,15.4,22.53,NNW,332,0.0,21.0,66,0.00,,,0.03,Wunderground v.1.15,2013-04-23 19:01:00,
2013-04-23 13:03:00,26.0,15.5,22.53,NE,54,0.0,21.0,64,0.00,,,0.03,Wunderground v.1.15,2013-04-23 19:03:00,
2013-04-23 13:05:00,26.3,15.4,22.53,NNW,345,0.0,21.0,63,0.00,,,0.03,Wunderground v.1.15,2013-04-23 19:05:00,
2013-04-23 13:09:00,26.0,14.0,22.53,NNW,347,0.0,21.0,60,0.00,,,0.03,Wunderground v.1.15,2013-04-23 19:09:00,
2013-04-23 13:11:00,26.7,15.8,22.53,NNW,345,0.0,21.0,63,0.00,,,0.03,Wunderground v.1.15,2013-04-23 19:11:00,
2013-04-23 13:13:00,27.1,15.8,22.53,NNW,339,0.0,21.0,62,0.00,,,0.03,Wunderground v.1.15,2013-04-23 19:13:00,
2013-04-23 13:15:00,27.5,16.2,22.53,North,360,0.0,21.0,62,0.00,,,0.03,Wunderground v.1.15,2013-04-23 19:15:00,
2013-04-23 13:17:00,27.4,16.1,22.53,North,8,0.0,21.0,62,0.00,,,0.03,Wunderground v.1.15,2013-04-23 19:17:00,
2013-04-23 13:21:00,27.4,15.7,22.53,ENE,72,0.0,21.0,61,0.00,,,0.04,Wunderground v.1.15,2013-04-23 19:21:00,
2013-04-23 13:23:00,27.7,16.7,22.52,East,92,0.0,21.0,63,0.00,,,0.04,Wunderground v.1.15,2013-04-23 19:23:00,
2013-04-23 13:25:00,28.3,15.8,22.52,East,86,0.0,21.0,59,0.00,,,0.04,Wunderground v.1.15,2013-04-23 19:25:00,
2013-04-23 13:29:00,28.4,15.9,22.52,NNE,16,0.0,21.0,59,0.00,,,0.04,Wunderground v.1.15,2013-04-23 19:29:00,
2013-04-23 13:31:00,27.7,15.6,22.52,North,355,0.0,21.0,60,0.00,,,0.04,Wunderground v.1.15,2013-04-23 19:31:00,
2013-04-23 13:33:00,27.4,15.7,22.52,ESE,109,0.0,21.0,61,0.00,,,0.04,Wunderground v.1.15,2013-04-23 19:33:00,
2013-04-23 13:35:00,27.5,16.2,22.52,ENE,70,0.0,21.0,62,0.00,,,0.04,Wunderground v.1.15,2013-04-23 19:35:00,
2013-04-23 13:37:00,27.2,15.9,22.52,West,263,0.0,21.0,62,0.04,,,0.04,Wunderground v.1.15,2013-04-23 19:37:00,
2013-04-23 13:39:00,26.8,14.8,22.52,NNW,339,0.0,21.0,60,0.04,,,0.05,Wunderground v.1.15,2013-04-23 19:39:00,
2013-04-23 13:41:00,26.3,15.0,22.52,North,351,0.0,21.0,62,0.04,,,0.05,Wunderground v.1.15,2013-04-23 19:41:00,
2013-04-23 13:43:00,26.1,14.8,22.52,East,85,0.0,21.0,62,0.04,,,0.05,Wunderground v.1.15,2013-04-23 19:43:00,
2013-04-23 13:47:00,26.0,15.5,22.52,NNW,331,0.0,21.0,64,0.04,,,0.05,Wunderground v.1.15,2013-04-23 19:47:00,
2013-04-23 13:49:00,25.8,15.3,22.52,NNW,332,0.0,21.0,64,0.04,,,0.05,Wunderground v.1.15,2013-04-23 19:49:00,
2013-04-23 13:51:00,25.6,15.5,22.52,ENE,64,0.0,21.0,65,0.04,,,0.05,Wunderground v.1.15,2013-04-23 19:51:00,
2013-04-23 13:53:00,25.6,15.1,22.52,North,350,0.0,21.0,64,0.04,,,0.05,Wunderground v.1.15,2013-04-23 19:53:00,
2013-04-23 13:55:00,26.0,16.2,22.52,NNE,18,0.0,21.0,66,0.00,,,0.05,Wunderground v.1.15,2013-04-23 19:55:00,
2013-04-23 13:57:00,26.1,15.9,22.52,NNE,13,0.0,21.0,65,0.00,,,0.05,Wunderground v.1.15,2013-04-23 19:57:00,
2013-04-23 14:01:00,26.7,17.2,22.52,ENE,71,0.0,21.0,67,0.00,,,0.06,Wunderground v.1.15,2013-04-23 20:01:00,
2013-04-23 14:03:00,26.9,16.7,22.52,NE,54,0.0,21.0,65,0.00,,,0.06,Wunderground v.1.15,2013-04-23 20:03:00,
2013-04-23 14:05:00,26.8,15.9,22.52,NNW,328,0.0,21.0,63,0.00,,,0.06,Wunderground v.1.15,2013-04-23 20:05:00,
2013-04-23 14:07:00,26.9,16.7,22.52,East,91,0.0,21.0,65,0.00,,,0.06,Wunderground v.1.15,2013-04-23 20:07:00,
2013-04-23 14:09:00,27.0,16.4,22.52,North,9,0.0,21.0,64,0.00,,,0.06,Wunderground v.1.15,2013-04-23 20:09:00,
2013-04-23 14:11:00,26.9,16.0,22.52,East,94,0.0,21.0,63,0.00,,,0.06,Wunderground v.1.15,2013-04-23 20:11:00,
2013-04-23 14:13:00,26.7,16.5,22.52,NNW,339,0.0,21.0,65,0.00,,,0.06,Wunderground v.1.15,2013-04-23 20:13:00,
2013-04-23 14:15:00,26.9,16.7,22.52,NW,323,0.0,21.0,65,0.00,,,0.06,Wunderground v.1.15,2013-04-23 20:15:00,
2013-04-23 14:17:00,27.3,17.1,22.52,NE,53,0.0,21.0,65,0.00,,,0.07,Wunderground v.1.15,2013-04-23 20:17:00,
2013-04-23 14:19:00,27.7,17.5,22.52,North,4,0.0,21.0,65,0.00,,,0.07,Wunderground v.1.15,2013-04-23 20:19:00,
2013-04-23 14:21:00,27.9,16.9,22.52,North,351,0.0,21.0,63,0.00,,,0.07,Wunderground v.1.15,2013-04-23 20:21:00,
2013-04-23 14:25:00,27.9,17.3,22.52,NNE,15,0.0,21.0,64,0.00,,,0.07,Wunderground v.1.15,2013-04-23 20:25:00,
2013-04-23 14:27:00,27.8,16.8,22.52,North,353,0.0,21.0,63,0.00,,,0.07,Wunderground v.1.15,2013-04-23 20:27:00,
2013-04-23 14:29:00,28.0,18.1,22.52,SSW,211,0.0,21.0,66,0.00,,,0.07,Wunderground v.1.15,2013-04-23 20:29:00,
2013-04-23 14:33:00,28.7,17.3,22.52,ENE,60,0.0,21.0,62,0.00,,,0.07,Wunderground v.1.15,2013-04-23 20:33:00,
2013-04-23 14:35:00,28.5,17.1,22.52,North,358,0.0,21.0,62,0.00,,,0.07,Wunderground v.1.15,2013-04-23 20:35:00,
2013-04-23 14:37:00,28.2,16.8,22.52,WNW,300,0.0,21.0,62,0.00,,,0.07,Wunderground v.1.15,2013-04-23 20:37:00,
2013-04-23 14:39:00,28.2,17.6,22.52,North,4,0.0,21.0,64,0.00,,,0.07,Wunderground v.1.15,2013-04-23 20:39:00,
2013-04-23 14:41:00,28.2,16.8,22.52,NNE,25,0.0,21.0,62,0.00,,,0.07,Wunderground v.1.15,2013-04-23 20:41:00,
2013-04-23 14:43:00,28.2,16.8,22.52,NNW,335,0.0,21.0,62,0.00,,,0.08,Wunderground v.1.15,2013-04-23 20:43:00,
2013-04-23 14:47:00,28.2,16.5,22.52,NNW,339,0.0,21.0,61,0.00,,,0.08,Wunderground v.1.15,2013-04-23 20:47:00,
2013-04-23 14:49:00,27.9,16.6,22.52,NE,53,0.0,21.0,62,0.00,,,0.08,Wunderground v.1.15,2013-04-23 20:49:00,
2013-04-23 14:51:00,27.8,16.8,22.52,North,6,0.0,21.0,63,0.00,,,0.08,Wunderground v.1.15,2013-04-23 20:51:00,
2013-04-23 14:53:00,27.7,16.4,22.52,NNW,343,0.0,21.0,62,0.00,,,0.08,Wunderground v.1.15,2013-04-23 20:53:00,
2013-04-23 14:55:00,27.9,17.3,22.52,North,11,0.0,21.0,64,0.00,,,0.08,Wunderground v.1.15,2013-04-23 20:55:00,
2013-04-23 14:57:00,28.0,17.0,22.52,North,6,0.0,21.0,63,0.00,,,0.08,Wunderground v.1.15,2013-04-23 20:57:00,
2013-04-23 14:59:00,28.0,16.6,22.52,NNE,19,0.0,21.0,62,0.04,,,0.09,Wunderground v.1.15,2013-04-23 20:59:00,
2013-04-23 15:05:00,28.4,17.4,22.52,NE,53,0.0,21.0,63,0.04,,,0.09,Wunderground v.1.15,2013-04-23 21:05:00,
2013-04-23 15:09:00,28.8,17.8,22.52,North,4,0.0,21.0,63,0.04,,,0.09,Wunderground v.1.15,2013-04-23 21:09:00,
2013-04-23 15:11:00,28.9,17.1,22.52,ENE,58,0.0,21.0,61,0.04,,,0.09,Wunderground v.1.15,2013-04-23 21:11:00,
2013-04-23 15:13:00,28.9,18.2,22.52,NNE,30,0.0,21.0,64,0.04,,,0.09,Wunderground v.1.15,2013-04-23 21:13:00,
2013-04-23 15:15:00,28.9,17.9,22.52,East,91,0.0,21.0,63,0.00,,,0.09,Wunderground v.1.15,2013-04-23 21:15:00,
2013-04-23 15:19:00,29.1,18.8,22.51,ENE,67,0.0,21.0,65,0.00,,,0.10,Wunderground v.1.15,2013-04-23 21:19:00,
2013-04-23 15:21:00,29.1,18.4,22.52,North,11,0.0,21.0,64,0.00,,,0.10,Wunderground v.1.15,2013-04-23 21:21:00,
2013-04-23 15:25:00,28.9,18.2,22.52,ENE,63,0.0,21.0,64,0.00,,,0.10,Wunderground v.1.15,2013-04-23 21:25:00,
2013-04-23 15:29:00,28.8,17.8,22.52,NE,53,0.0,21.0,63,0.00,,,0.10,Wunderground v.1.15,2013-04-23 21:29:00,
2013-04-23 15:31:00,28.7,17.7,22.52,NE,53,0.0,21.0,63,0.00,,,0.10,Wunderground v.1.15,2013-04-23 21:31:00,
2013-04-23 15:33:00,28.4,17.4,22.52,NW,311,0.0,21.0,63,0.04,,,0.11,Wunderground v.1.15,2013-04-23 21:33:00,
2013-04-23 15:37:00,28.4,17.8,22.51,ENE,65,0.0,21.0,64,0.04,,,0.11,Wunderground v.1.15,2013-04-23 21:37:00,
2013-04-23 15:39:00,28.7,18.8,22.51,NNE,15,0.0,21.0,66,0.04,,,0.11,Wunderground v.1.15,2013-04-23 21:39:00,
2013-04-23 15:43:00,28.8,17.8,22.51,North,359,0.0,21.0,63,0.04,,,0.11,Wunderground v.1.15,2013-04-23 21:43:00,
2013-04-23 15:45:00,28.8,17.8,22.51,NW,325,0.0,21.0,63,0.04,,,0.11,Wunderground v.1.15,2013-04-23 21:45:00,
2013-04-23 15:49:00,28.7,17.7,22.51,NW,315,0.0,21.0,63,0.04,,,0.12,Wunderground v.1.15,2013-04-23 21:49:00,
2013-04-23 15:53:00,28.9,18.6,22.51,NW,307,0.0,21.0,65,0.04,,,0.12,Wunderground v.1.15,2013-04-23 21:53:00,
2013-04-23 15:55:00,29.0,18.7,22.51,ENE,70,0.0,21.0,65,0.04,,,0.12,Wunderground v.1.15,2013-04-23 21:55:00,
2013-04-23 15:57:00,29.2,18.9,22.51,East,81,0.0,21.0,65,0.04,,,0.12,Wunderground v.1.15,2013-04-23 21:57:00,
2013-04-23 15:59:00,29.2,18.5,22.51,NNW,338,0.0,21.0,64,0.04,,,0.12,Wunderground v.1.15,2013-04-23 21:59:00,
2013-04-23 16:01:00,29.2,18.9,22.51,North,350,0.0,21.0,65,0.05,,,0.13,Wunderground v.1.15,2013-04-23 22:01:00,
2013-04-23 16:07:00,29.0,18.7,22.51,NNW,346,0.0,21.0,65,0.05,,,0.13,Wunderground v.1.15,2013-04-23 22:07:00,
2013-04-23 16:09:00,28.7,18.4,22.51,NE,46,0.0,21.0,65,0.05,,,0.13,Wunderground v.1.15,2013-04-23 22:09:00,
2013-04-23 16:15:00,28.1,19.2,22.51,NE,41,0.0,21.0,69,0.05,,,0.14,Wunderground v.1.15,2013-04-23 22:15:00,
2013-04-23 16:17:00,28.3,19.1,22.51,North,8,0.0,21.0,68,0.05,,,0.14,Wunderground v.1.15,2013-04-23 22:17:00,
2013-04-23 16:19:00,28.4,19.2,22.51,NNW,342,0.0,21.0,68,0.05,,,0.14,Wunderground v.1.15,2013-04-23 22:19:00,
2013-04-23 16:25:00,28.7,19.1,22.51,ENE,67,0.0,21.0,67,0.04,,,0.14,Wunderground v.1.15,2013-04-23 22:25:00,
2013-04-23 16:31:00,28.6,18.7,22.50,NE,50,0.0,21.0,66,0.00,,,0.14,Wunderground v.1.15,2013-04-23 22:31:00,
2013-04-23 16:33:00,28.6,19.0,22.51,NW,325,0.0,21.0,67,0.00,,,0.14,Wunderground v.1.15,2013-04-23 22:33:00,
2013-04-23 16:35:00,28.6,18.7,22.51,North,9,0.0,21.0,66,0.00,,,0.14,Wunderground v.1.15,2013-04-23 22:35:00,
2013-04-23 16:39:00,28.8,19.2,22.51,North,4,0.0,21.0,67,0.00,,,0.14,Wunderground v.1.15,2013-04-23 22:39:00,
2013-04-23 16:41:00,28.8,19.2,22.51,NNW,335,0.0,21.0,67,0.00,,,0.14,Wunderground v.1.15,2013-04-23 22:41:00,
2013-04-23 16:43:00,28.6,18.7,22.51,NNW,343,0.0,21.0,66,0.00,,,0.14,Wunderground v.1.15,2013-04-23 22:43:00,
2013-04-23 16:47:00,28.3,19.1,22.51,East,81,0.0,21.0,68,0.00,,,0.15,Wunderground v.1.15,2013-04-23 22:47:00,
2013-04-23 16:49:00,28.1,18.9,22.51,NE,41,0.0,21.0,68,0.00,,,0.15,Wunderground v.1.15,2013-04-23 22:49:00,
2013-04-23 16:51:00,28.0,19.1,22.51,North,349,0.0,21.0,69,0.00,,,0.15,Wunderground v.1.15,2013-04-23 22:51:00,
2013-04-23 16:57:00,28.3,19.4,22.51,ENE,60,0.0,21.0,69,0.00,,,0.15,Wunderground v.1.15,2013-04-23 22:57:00,
2013-04-23 16:59:00,27.9,19.0,22.51,ENE,61,0.0,21.0,69,0.00,,,0.15,Wunderground v.1.15,2013-04-23 22:59:00,
2013-04-23 17:01:00,27.6,19.1,22.51,North,11,0.0,21.0,70,0.00,,,0.15,Wunderground v.1.15,2013-04-23 23:01:00,
2013-04-23 17:05:00,27.2,19.0,22.51,NE,41,0.0,21.0,71,0.00,,,0.15,Wunderground v.1.15,2013-04-23 23:05:00,
2013-04-23 17:07:00,27.1,18.9,22.51,NNE,25,0.0,21.0,71,0.00,,,0.15,Wunderground v.1.15,2013-04-23 23:07:00,
2013-04-23 17:09:00,27.0,18.8,22.51,WSW,238,0.0,21.0,71,0.00,,,0.15,Wunderground v.1.15,2013-04-23 23:09:00,
2013-04-23 17:11:00,27.1,19.3,22.51,WSW,250,0.0,21.0,72,0.00,,,0.15,Wunderground v.1.15,2013-04-23 23:11:00,
2013-04-23 17:15:00,27.7,19.5,22.51,NNW,342,0.0,21.0,71,0.00,,,0.15,Wunderground v.1.15,2013-04-23 23:15:00,
2013-04-23 17:17:00,27.8,19.9,22.51,NW,316,0.0,21.0,72,0.00,,,0.15,Wunderground v.1.15,2013-04-23 23:17:00,
2013-04-23 17:21:00,27.8,19.3,22.52,North,360,0.0,21.0,70,0.00,,,0.15,Wunderground v.1.15,2013-04-23 23:21:00,
2013-04-23 17:25:00,27.9,19.0,22.52,NNE,15,0.0,21.0,69,0.00,,,0.15,Wunderground v.1.15,2013-04-23 23:25:00,
2013-04-23 17:27:00,27.9,19.0,22.51,North,1,0.0,21.0,69,0.00,,,0.15,Wunderground v.1.15,2013-04-23 23:27:00,
2013-04-23 17:29:00,27.7,18.8,22.51,NNW,339,0.0,21.0,69,0.00,,,0.15,Wunderground v.1.15,2013-04-23 23:29:00,
2013-04-23 17:31:00,27.7,18.8,22.51,NNW,330,0.0,21.0,69,0.00,,,0.15,Wunderground v.1.15,2013-04-23 23:31:00,
2013-04-23 17:37:00,27.5,19.3,22.51,NE,34,0.0,21.0,71,0.00,,,0.15,Wunderground v.1.15,2013-04-23 23:37:00,
2013-04-23 17:39:00,27.5,19.3,22.52,NE,34,0.0,21.0,71,0.00,,,0.15,Wunderground v.1.15,2013-04-23 23:39:00,
2013-04-23 17:41:00,27.7,19.2,22.52,NE,34,0.0,21.0,70,0.00,,,0.15,Wunderground v.1.15,2013-04-23 23:41:00,
2013-04-23 17:43:00,27.9,18.4,22.52,NE,46,0.0,21.0,67,0.00,,,0.15,Wunderground v.1.15,2013-04-23 23:43:00,
2013-04-23 17:47:00,28.2,20.0,22.52,North,350,0.0,21.0,71,0.00,,,0.15,Wunderground v.1.15,2013-04-23 23:47:00,
2013-04-23 17:51:00,27.6,19.4,22.52,ESE,108,0.0,21.0,71,0.00,,,0.15,Wunderground v.1.15,2013-04-23 23:51:00,
2013-04-23 17:53:00,27.4,19.6,22.52,ENE,75,0.0,21.0,72,0.00,,,0.15,Wunderground v.1.15,2013-04-23 23:53:00,
2013-04-23 17:57:00,28.0,20.1,22.52,ESE,114,0.0,21.0,72,0.00,,,0.15,Wunderground v.1.15,2013-04-23 23:57:00,
2013-04-23 17:59:00,28.2,18.3,22.52,SSE,153,0.0,21.0,66,0.00,,,0.15,Wunderground v.1.15,2013-04-23 23:59:00,
2013-04-23 18:03:00,28.6,14.9,22.53,WSW,256,0.0,21.0,56,0.00,,,0.15,Wunderground v.1.15,2013-04-24 00:03:00,
2013-04-23 18:07:00,28.5,14.8,22.53,WSW,239,0.0,21.0,56,0.00,,,0.15,Wunderground v.1.15,2013-04-24 00:07:00,
2013-04-23 18:09:00,28.5,15.6,22.53,SSW,197,0.0,21.0,58,0.00,,,0.15,Wunderground v.1.15,2013-04-24 00:09:00,
2013-04-23 18:11:00,28.5,16.0,22.53,WSW,255,0.0,21.0,59,0.00,,,0.15,Wunderground v.1.15,2013-04-24 00:11:00,
2013-04-23 18:15:00,28.8,16.6,22.53,SSW,204,0.0,21.0,60,0.00,,,0.15,Wunderground v.1.15,2013-04-24 00:15:00,
2013-04-23 18:17:00,28.9,16.4,22.53,SSW,197,0.0,21.0,59,0.00,,,0.15,Wunderground v.1.15,2013-04-24 00:17:00,
2013-04-23 18:21:00,29.0,15.7,22.53,WSW,257,0.0,21.0,57,0.00,,,0.15,Wunderground v.1.15,2013-04-24 00:21:00,
2013-04-23 18:23:00,28.8,15.1,22.53,WSW,246,0.0,21.0,56,0.00,,,0.15,Wunderground v.1.15,2013-04-24 00:23:00,
2013-04-23 18:27:00,28.4,14.7,22.54,SSW,211,0.0,21.0,56,0.00,,,0.15,Wunderground v.1.15,2013-04-24 00:27:00,
2013-04-23 18:31:00,28.1,15.2,22.54,SW,231,0.0,21.0,58,0.00,,,0.15,Wunderground v.1.15,2013-04-24 00:31:00,
2013-04-23 18:33:00,27.9,15.4,22.54,SW,214,0.0,21.0,59,0.00,,,0.15,Wunderground v.1.15,2013-04-24 00:33:00,
2013-04-23 18:35:00,27.7,15.6,22.54,WSW,240,0.0,21.0,60,0.00,,,0.15,Wunderground v.1.15,2013-04-24 00:35:00,
2013-04-23 18:37:00,27.5,15.0,22.54,SSW,198,0.0,21.0,59,0.00,,,0.15,Wunderground v.1.15,2013-04-24 00:37:00,
2013-04-23 18:39:00,27.4,15.7,22.54,WSW,242,0.0,21.0,61,0.00,,,0.15,Wunderground v.1.15,2013-04-24 00:39:00,
2013-04-23 18:45:00,27.1,15.8,22.54,West,259,0.0,21.0,62,0.00,,,0.15,Wunderground v.1.15,2013-04-24 00:45:00,
2013-04-23 18:47:00,26.9,15.6,22.54,SW,233,0.0,21.0,62,0.00,,,0.15,Wunderground v.1.15,2013-04-24 00:47:00,
2013-04-23 18:49:00,26.7,15.8,22.54,SW,232,0.0,21.0,63,0.00,,,0.15,Wunderground v.1.15,2013-04-24 00:49:00,
2013-04-23 18:53:00,26.3,16.1,22.54,SW,229,0.0,21.0,65,0.00,,,0.15,Wunderground v.1.15,2013-04-24 00:53:00,
2013-04-23 18:55:00,26.3,15.8,22.54,WSW,253,0.0,21.0,64,0.00,,,0.15,Wunderground v.1.15,2013-04-24 00:55:00,
2013-04-23 18:59:00,26.2,15.7,22.54,WSW,246,0.0,21.0,64,0.00,,,0.15,Wunderground v.1.15,2013-04-24 00:59:00,
2013-04-23 19:01:00,26.0,15.5,22.54,SW,219,0.0,21.0,64,0.00,,,0.15,Wunderground v.1.15,2013-04-24 01:01:00,
2013-04-23 19:03:00,25.9,15.4,22.54,West,264,0.0,21.0,64,0.00,,,0.15,Wunderground v.1.15,2013-04-24 01:03:00,
2013-04-23 19:05:00,25.8,15.3,22.55,SW,236,0.0,21.0,64,0.00,,,0.15,Wunderground v.1.15,2013-04-24 01:05:00,
2013-04-23 19:09:00,25.9,14.3,22.55,SW,233,0.0,21.0,61,0.00,,,0.15,Wunderground v.1.15,2013-04-24 01:09:00,
2013-04-23 19:11:00,26.0,14.4,22.55,SW,215,0.0,21.0,61,0.00,,,0.15,Wunderground v.1.15,2013-04-24 01:11:00,
2013-04-23 19:17:00,25.9,13.5,22.55,SW,236,0.0,21.0,59,0.00,,,0.15,Wunderground v.1.15,2013-04-24 01:17:00,
2013-04-23 19:19:00,25.8,13.4,22.55,SSW,194,0.0,21.0,59,0.00,,,0.15,Wunderground v.1.15,2013-04-24 01:19:00,
2013-04-23 19:23:00,25.7,13.3,22.55,SSW,211,0.0,21.0,59,0.00,,,0.15,Wunderground v.1.15,2013-04-24 01:23:00,
2013-04-23 19:27:00,25.5,13.5,22.55,SW,225,0.0,21.0,60,0.00,,,0.15,Wunderground v.1.15,2013-04-24 01:27:00,
2013-04-23 19:29:00,25.4,13.4,22.55,SSW,193,0.0,21.0,60,0.00,,,0.15,Wunderground v.1.15,2013-04-24 01:29:00,
2013-04-23 19:31:00,25.4,12.7,22.55,West,259,0.0,21.0,58,0.00,,,0.15,Wunderground v.1.15,2013-04-24 01:31:00,
2013-04-23 19:33:00,25.4,12.7,22.55,SW,217,0.0,21.0,58,0.00,,,0.15,Wunderground v.1.15,2013-04-24 01:33:00,
2013-04-23 19:35:00,25.3,13.0,22.55,SW,232,0.0,21.0,59,0.00,,,0.15,Wunderground v.1.15,2013-04-24 01:35:00,
2013-04-23 19:37:00,25.2,12.9,22.55,SSW,210,0.0,21.0,59,0.00,,,0.15,Wunderground v.1.15,2013-04-24 01:37:00,
2013-04-23 19:39:00,25.1,12.8,22.55,SSW,211,0.0,21.0,59,0.00,,,0.15,Wunderground v.1.15,2013-04-24 01:39:00,
2013-04-23 19:43:00,25.0,13.1,22.55,SW,236,0.0,21.0,60,0.00,,,0.15,Wunderground v.1.15,2013-04-24 01:43:00,
2013-04-23 19:45:00,24.9,13.3,22.55,SSW,210,0.0,21.0,61,0.00,,,0.15,Wunderground v.1.15,2013-04-24 01:45:00,
2013-04-23 19:49:00,24.7,12.8,22.55,SW,229,0.0,21.0,60,0.00,,,0.15,Wunderground v.1.15,2013-04-24 01:49:00,
2013-04-23 19:51:00,24.6,12.7,22.55,SW,221,0.0,21.0,60,0.00,,,0.15,Wunderground v.1.15,2013-04-24 01:51:00,
2013-04-23 19:55:00,24.4,12.9,22.55,SW,222,0.0,21.0,61,0.00,,,0.15,Wunderground v.1.15,2013-04-24 01:55:00,
2013-04-23 19:57:00,24.4,12.9,22.55,SW,235,0.0,21.0,61,0.00,,,0.15,Wunderground v.1.15,2013-04-24 01:57:00,
2013-04-23 20:01:00,24.5,12.6,22.55,SW,225,0.0,21.0,60,0.00,,,0.15,Wunderground v.1.15,2013-04-24 02:01:00,
2013-04-23 20:03:00,24.5,12.6,22.56,SW,226,0.0,21.0,60,0.00,,,0.15,Wunderground v.1.15,2013-04-24 02:03:00,
2013-04-23 20:07:00,24.4,13.2,22.56,SW,233,0.0,21.0,62,0.00,,,0.15,Wunderground v.1.15,2013-04-24 02:07:00,
2013-04-23 20:09:00,24.3,13.1,22.56,WSW,240,0.0,21.0,62,0.00,,,0.15,Wunderground v.1.15,2013-04-24 02:09:00,
2013-04-23 20:13:00,24.1,12.6,22.56,SSW,208,0.0,21.0,61,0.00,,,0.15,Wunderground v.1.15,2013-04-24 02:13:00,
2013-04-23 20:15:00,24.2,11.9,22.56,SSW,207,0.0,21.0,59,0.00,,,0.15,Wunderground v.1.15,2013-04-24 02:15:00,
2013-04-23 20:17:00,24.2,11.5,22.56,WSW,240,0.0,21.0,58,0.00,,,0.15,Wunderground v.1.15,2013-04-24 02:17:00,
2013-04-23 20:21:00,24.1,12.6,22.56,WSW,243,0.0,21.0,61,0.00,,,0.15,Wunderground v.1.15,2013-04-24 02:21:00,
2013-04-23 20:23:00,24.0,12.5,22.56,SW,217,0.0,21.0,61,0.00,,,0.15,Wunderground v.1.15,2013-04-24 02:23:00,
2013-04-23 20:27:00,23.8,12.3,22.56,SSW,204,0.0,21.0,61,0.00,,,0.15,Wunderground v.1.15,2013-04-24 02:27:00,
2013-04-23 20:29:00,23.8,11.9,22.56,WSW,250,0.0,21.0,60,0.00,,,0.15,Wunderground v.1.15,2013-04-24 02:29:00,
2013-04-23 20:35:00,23.8,11.9,22.56,WSW,238,0.0,21.0,60,0.00,,,0.15,Wunderground v.1.15,2013-04-24 02:35:00,
2013-04-23 20:37:00,23.7,11.8,22.56,WSW,243,0.0,21.0,60,0.00,,,0.15,Wunderground v.1.15,2013-04-24 02:37:00,
2013-04-23 20:39:00,23.6,11.7,22.56,SW,235,0.0,21.0,60,0.00,,,0.15,Wunderground v.1.15,2013-04-24 02:39:00,
2013-04-23 20:45:00,23.6,10.6,22.57,South,179,0.0,21.0,57,0.00,,,0.15,Wunderground v.1.15,2013-04-24 02:45:00,
2013-04-23 20:49:00,23.7,10.7,22.57,WSW,255,0.0,21.0,57,0.00,,,0.15,Wunderground v.1.15,2013-04-24 02:49:00,
2013-04-23 20:51:00,23.7,10.7,22.57,WSW,245,0.0,21.0,57,0.00,,,0.15,Wunderground v.1.15,2013-04-24 02:51:00,
2013-04-23 20:53:00,23.7,10.7,22.57,WSW,243,0.0,21.0,57,0.00,,,0.15,Wunderground v.1.15,2013-04-24 02:53:00,
2013-04-23 20:59:00,23.6,11.0,22.57,SW,215,0.0,21.0,58,0.00,,,0.15,Wunderground v.1.15,2013-04-24 02:59:00,
2013-04-23 21:01:00,23.5,12.0,22.57,SW,236,0.0,21.0,61,0.00,,,0.15,Wunderground v.1.15,2013-04-24 03:01:00,
2013-04-23 21:03:00,23.2,11.4,22.58,SW,233,0.0,21.0,60,0.00,,,0.15,Wunderground v.1.15,2013-04-24 03:03:00,
2013-04-23 21:05:00,22.9,11.8,22.58,South,190,0.0,21.0,62,0.00,,,0.15,Wunderground v.1.15,2013-04-24 03:05:00,
2013-04-23 21:09:00,22.1,11.4,22.58,SW,225,0.0,21.0,63,0.00,,,0.15,Wunderground v.1.15,2013-04-24 03:09:00,
2013-04-23 21:11:00,21.8,11.5,22.58,South,190,0.0,21.0,64,0.00,,,0.15,Wunderground v.1.15,2013-04-24 03:11:00,
2013-04-23 21:15:00,22.3,10.1,22.58,SSW,210,0.0,21.0,59,0.00,,,0.15,Wunderground v.1.15,2013-04-24 03:15:00,
2013-04-23 21:23:00,22.9,9.1,22.58,SSW,208,0.0,21.0,55,0.00,,,0.15,Wunderground v.1.15,2013-04-24 03:23:00,
2013-04-23 21:25:00,22.9,9.5,22.58,SW,233,0.0,21.0,56,0.00,,,0.15,Wunderground v.1.15,2013-04-24 03:25:00,
2013-04-23 21:31:00,23.3,8.7,22.58,SW,225,0.0,21.0,53,0.00,,,0.15,Wunderground v.1.15,2013-04-24 03:31:00,
2013-04-23 21:37:00,23.3,9.1,22.58,South,169,0.0,21.0,54,0.00,,,0.15,Wunderground v.1.15,2013-04-24 03:37:00,
2013-04-23 21:39:00,23.3,8.2,22.58,SW,226,0.0,21.0,52,0.00,,,0.15,Wunderground v.1.15,2013-04-24 03:39:00,
2013-04-23 21:41:00,23.4,8.8,22.58,SSW,205,0.0,21.0,53,0.00,,,0.15,Wunderground v.1.15,2013-04-24 03:41:00,
2013-04-23 21:45:00,23.4,8.8,22.58,SW,231,0.0,21.0,53,0.00,,,0.15,Wunderground v.1.15,2013-04-24 03:45:00,
2013-04-23 21:47:00,23.5,8.4,22.58,South,190,0.0,21.0,52,0.00,,,0.15,Wunderground v.1.15,2013-04-24 03:47:00,
2013-04-23 21:51:00,23.6,8.5,22.59,SW,236,0.0,21.0,52,0.00,,,0.15,Wunderground v.1.15,2013-04-24 03:51:00,
2013-04-23 21:53:00,23.6,8.1,22.59,WSW,240,0.0,21.0,51,0.00,,,0.15,Wunderground v.1.15,2013-04-24 03:53:00,
2013-04-23 21:57:00,23.7,7.7,22.59,SSE,160,0.0,21.0,50,0.00,,,0.15,Wunderground v.1.15,2013-04-24 03:57:00,
2013-04-23 22:01:00,23.9,7.9,22.59,South,191,0.0,21.0,50,0.00,,,0.15,Wunderground v.1.15,2013-04-24 04:01:00,
2013-04-23 22:05:00,23.8,8.3,22.59,WSW,250,0.0,21.0,51,0.00,,,0.15,Wunderground v.1.15,2013-04-24 04:05:00,
2013-04-23 22:07:00,23.8,7.8,22.59,WSW,247,0.0,21.0,50,0.00,,,0.15,Wunderground v.1.15,2013-04-24 04:07:00,
2013-04-23 22:09:00,23.8,7.8,22.59,SSW,212,0.0,21.0,50,0.00,,,0.15,Wunderground v.1.15,2013-04-24 04:09:00,
2013-04-23 22:13:00,24.0,8.0,22.59,WSW,238,0.0,21.0,50,0.00,,,0.15,Wunderground v.1.15,2013-04-24 04:13:00,
2013-04-23 22:15:00,24.0,8.0,22.59,SW,233,0.0,21.0,50,0.00,,,0.15,Wunderground v.1.15,2013-04-24 04:15:00,
2013-04-23 22:17:00,24.0,8.5,22.59,SSW,205,0.0,21.0,51,0.00,,,0.15,Wunderground v.1.15,2013-04-24 04:17:00,
2013-04-23 22:19:00,23.8,8.3,22.59,West,260,0.0,21.0,51,0.00,,,0.15,Wunderground v.1.15,2013-04-24 04:19:00,
2013-04-23 22:21:00,23.9,7.9,22.59,WSW,249,0.0,21.0,50,0.00,,,0.15,Wunderground v.1.15,2013-04-24 04:21:00,
2013-04-23 22:23:00,23.9,7.9,22.59,SW,217,0.0,21.0,50,0.00,,,0.15,Wunderground v.1.15,2013-04-24 04:23:00,
2013-04-23 22:25:00,23.8,8.3,22.59,SW,225,0.0,21.0,51,0.00,,,0.15,Wunderground v.1.15,2013-04-24 04:25:00,
2013-04-23 22:27:00,23.6,8.1,22.59,SW,226,0.0,21.0,51,0.00,,,0.15,Wunderground v.1.15,2013-04-24 04:27:00,
2013-04-23 22:29:00,23.5,8.4,22.59,SW,229,0.0,21.0,52,0.00,,,0.15,Wunderground v.1.15,2013-04-24 04:29:00,
2013-04-23 22:31:00,23.4,8.3,22.59,WSW,240,0.0,21.0,52,0.00,,,0.15,Wunderground v.1.15,2013-04-24 04:31:00,
2013-04-23 22:33:00,23.3,8.2,22.58,SSW,210,0.0,21.0,52,0.00,,,0.15,Wunderground v.1.15,2013-04-24 04:33:00,
2013-04-23 22:35:00,23.2,8.2,22.58,SSE,152,0.0,21.0,52,0.00,,,0.15,Wunderground v.1.15,2013-04-24 04:35:00,
2013-04-23 22:41:00,22.9,7.9,22.58,WSW,252,0.0,21.0,52,0.00,,,0.15,Wunderground v.1.15,2013-04-24 04:41:00,
2013-04-23 22:43:00,23.0,8.0,22.58,SW,225,1.0,1.0,52,0.00,,,0.15,Wunderground v.1.15,2013-04-24 04:43:00,
2013-04-23 22:45:00,22.9,8.3,22.58,SW,225,1.0,21.0,53,0.00,,,0.15,Wunderground v.1.15,2013-04-24 04:45:00,
2013-04-23 22:47:00,22.8,7.8,22.58,South,174,1.0,21.0,52,0.00,,,0.15,Wunderground v.1.15,2013-04-24 04:47:00,
2013-04-23 22:51:00,23.0,8.0,22.58,South,186,1.0,21.0,52,0.00,,,0.15,Wunderground v.1.15,2013-04-24 04:51:00,
2013-04-23 22:53:00,23.0,8.0,22.58,West,259,1.0,21.0,52,0.00,,,0.15,Wunderground v.1.15,2013-04-24 04:53:00,
2013-04-23 22:55:00,23.1,8.1,22.58,WSW,249,1.0,21.0,52,0.00,,,0.15,Wunderground v.1.15,2013-04-24 04:55:00,
2013-04-23 22:59:00,23.0,8.4,22.58,NNE,25,1.0,21.0,53,0.00,,,0.15,Wunderground v.1.15,2013-04-24 04:59:00,
2013-04-23 23:01:00,22.9,8.7,22.58,ENE,60,1.0,21.0,54,0.00,,,0.15,Wunderground v.1.15,2013-04-24 05:01:00,
2013-04-23 23:03:00,22.7,8.5,22.58,WSW,253,1.0,21.0,54,0.00,,,0.15,Wunderground v.1.15,2013-04-24 05:03:00,
2013-04-23 23:05:00,22.5,8.3,22.58,East,99,1.0,21.0,54,0.00,,,0.15,Wunderground v.1.15,2013-04-24 05:05:00,
2013-04-23 23:07:00,22.4,9.1,22.58,West,277,1.0,21.0,56,0.00,,,0.15,Wunderground v.1.15,2013-04-24 05:07:00,
2013-04-23 23:11:00,22.2,8.9,22.58,ENE,67,1.0,21.0,56,0.00,,,0.15,Wunderground v.1.15,2013-04-24 05:11:00,
2013-04-23 23:13:00,22.1,8.8,22.58,ENE,67,1.0,21.0,56,0.00,,,0.15,Wunderground v.1.15,2013-04-24 05:13:00,
2013-04-23 23:17:00,22.1,8.4,22.58,SW,224,1.0,21.0,55,0.00,,,0.15,Wunderground v.1.15,2013-04-24 05:17:00,
2013-04-23 23:19:00,22.1,8.8,22.58,WNW,282,1.0,21.0,56,0.00,,,0.15,Wunderground v.1.15,2013-04-24 05:19:00,
2013-04-23 23:21:00,22.3,8.6,22.58,NW,309,1.0,21.0,55,0.00,,,0.15,Wunderground v.1.15,2013-04-24 05:21:00,
2013-04-23 23:25:00,22.5,8.7,22.57,SW,214,1.0,21.0,55,0.00,,,0.15,Wunderground v.1.15,2013-04-24 05:25:00,
2013-04-23 23:29:00,22.5,8.7,22.57,North,353,1.0,21.0,55,0.00,,,0.15,Wunderground v.1.15,2013-04-24 05:29:00,
2013-04-23 23:33:00,22.5,8.7,22.57,West,266,1.0,1.0,55,0.00,,,0.15,Wunderground v.1.15,2013-04-24 05:33:00,
2013-04-23 23:37:00,22.3,9.0,22.57,ENE,70,1.0,21.0,56,0.00,,,0.15,Wunderground v.1.15,2013-04-24 05:37:00,
2013-04-23 23:39:00,22.1,9.2,22.57,WSW,256,1.0,21.0,57,0.00,,,0.15,Wunderground v.1.15,2013-04-24 05:39:00,
2013-04-23 23:41:00,22.1,8.8,22.57,SSW,204,1.0,21.0,56,0.00,,,0.15,Wunderground v.1.15,2013-04-24 05:41:00,
2013-04-23 23:43:00,22.2,8.1,22.57,SW,226,1.0,21.0,54,0.00,,,0.15,Wunderground v.1.15,2013-04-24 05:43:00,
2013-04-23 23:47:00,22.6,8.4,22.57,South,180,1.0,21.0,54,0.00,,,0.15,Wunderground v.1.15,2013-04-24 05:47:00,
2013-04-23 23:53:00,22.9,8.7,22.57,SW,221,2.0,2.0,54,0.00,,,0.15,Wunderground v.1.15,2013-04-24 05:53:00,
2013-04-23 23:55:00,22.9,8.3,22.57,WSW,239,1.0,21.0,53,0.00,,,0.15,Wunderground v.1.15,2013-04-24 05:55:00,
2013-04-23 23:57:00,23.0,8.4,22.57,NNE,25,2.0,21.0,53,0.00,,,0.15,Wunderground v.1.15,2013-04-24 05:57:00,
2013-04-23 23:59:00,23.1,8.5,22.57,SSW,211,1.0,21.0,53,0.00,,,0.15,Wunderground v.1.15,2013-04-24 05:59:00,